Regional Weather Roundup
Issued by NWS Portland, ME

Home | Current Version | Previous Version | Text Only | Print | Product List | Glossary On
Versions: 1 2 3 4 5 6 7 8 9 10 11 12 13 14 15 16 17 18 19 20 21 22 23 24 25 26 27 28 29 30 31 32 33 34 35 36 37 38 39 40 41 42 43 44 45 46 47 48 49 50
000
ASUS41 KGYX 181110
RWRGYX
WEATHER ROUNDUP FOR MAINE AND NEW HAMPSHIRE
NATIONAL WEATHER SERVICE GRAY ME
600 AM EST WED JAN 18 2017

MEZ002-005-006-010-012-015-018-020-021-024-026-027-029-181200-
MAINE

CITY           SKY/WX    TMP DP  RH WIND       PRES   REMARKS
PORTLAND       LGT SNOW  27  24  89 N9        30.10S FOG
SANFORD        LGT SNOW  27  26  96 NE8       30.07S FOG
BAR HARBOR     CLOUDY    25  18  74 NE10      30.18S WCI  15
WISCASSET      LGT SNOW  26  22  84 N6        30.13S FOG
ROCKLAND       LGT SNOW  31  30  96 E12G21    30.13S FOG
FRYEBURG       LGT SNOW  24  21  88 N5        30.10F FOG
LEWISTONAUBURN LGT SNOW  23  21  92 N9        30.11S FOG
AUGUSTA        LGT SNOW  19  14  81 N10       30.14S WCI   7
WATERVILLE     LGT SNOW  18  14  86 NE10      30.12S FOG     WCI   6
BANGOR         CLOUDY    21  11  65 NE7       30.19S
GREENVILLE       N/A     13  11  92 SE9       30.06F
MILLINOCKET    CLOUDY    11   1  64 NE6       30.23S
HOULTON        PTCLDY     8   2  76 CALM      30.22S
PRESQUE ISLE   PTCLDY    -3  -8  79 CALM      30.24S
FRENCHVILLE    CLOUDY     1  -6  72 E7        30.18F
CARIBOU        CLOUDY     0  -5  79 N5        30.22S
$$

NHZ002-005-008-009-011-012-014-181200-
NEW HAMPSHIRE

CITY           SKY/WX    TMP DP  RH WIND       PRES   REMARKS
PORTSMOUTH     FLURRIES  35  33  92 VRB7      30.03S
ROCHESTER      LGT SNOW  29  26  89 N7        30.05  FOG
NASHUA         LGT RAIN  33  32  96 CALM      30.02S
MANCHESTER     LGT SNOW  33  30  88 NE6       30.01S FOG
CONCORD        LGT SNOW  31  28  89 NE12      30.03S FOG
LACONIA        LGT SNOW  27  25  93 VRB6      30.05S FOG
PLYMOUTH       FLURRIES  29  25  88 E5        30.04S
BERLIN         LGT SNOW  24  20  84 N6        30.03S FOG
WHITEFIELD     CLOUDY    29  21  72 CALM      29.98S
JAFFREY        LGT SNOW  33  30  88 CALM      29.97S FOG
KEENE          LGT RAIN  33  31  92 NW6       29.98S
LEBANON        CLOUDY    32  28  85 NE5       30.00R
MT WASHINGTON  SNOW      10  10 100 S18         N/A  VSB 1/16WCI  -8
$$

VTZ005-007-008-181200-
VERMONT

CITY           SKY/WX    TMP DP  RH WIND       PRES   REMARKS
ST JOHNSBURY     N/A     30  29  96 MISG      29.97F
MONTPELIER     LGT SNOW  29  28  96 S7        29.99S FOG
BURLINGTON     FLURRIES  34  32  92 S5        29.93R
$$

MAZ007-012-024-CTZ003-RIZ002-NYZ038-NYZ072-181200-
SOUTHERN NEW ENGLAND AND NY

CITY           SKY/WX    TMP DP  RH WIND       PRES   REMARKS
BOSTON         LGT RAIN  37  36  96 E16       30.00F FOG
WORCESTER      MIX PCPN  31  30  96 NE7       29.94S VSB 1/2
NANTUCKET      LGT RAIN  41  38  89 E16G24    29.91F FOG
PROVIDENCE     LGT RAIN  38  36  92 NE10      29.95S FOG
HARTFORD       DRIZZLE   35  34  96 N9        29.95S FOG
ALBANY         LGT SNOW  33  31  92 E3        29.93F FOG
NEW YORK CITY  CLOUDY    41  39  93 N14       29.90R
$$

ANZ081-ANZ082-ANZ150-NHZ014-MEZ023>029-181200-
COASTAL MARINE OBSERVATIONS

STATION/POSITION TIME  TEMP    WIND        PRES    WAVE
                       AIR SEA DIR/SP/G            HT/PER
                 (UTC) (F)     (DEG/KT/KT) (MB)    (FT/S)
MOUNT DESERT ROC 1100   31                 1020.4F
MATINICUS ROCK   1000   35      90/ 27/ 29 1018.3F
ISLE OF SHOALS   1000   37      90/ 22/ 24 1016.1R
CASHES LEDGE BUO 1050   36 46  110/ 17/ 21 1017.9R   5/ 5
GEORGES BANK BUO 0950   42 43              1015.5    4/ 4
$$

.............KEY..............
   WCI - WIND CHILL
   TC  - TEMPERATURE IN CELSIUS
   VSB - VISIBILITY IN MILES
   HX  - HEAT INDEX
   FAIR- INDICATES FEW OR NO CLOUDS BELOW 12,000 FT, WITH NO
         SIGNIFICANT WEATHER AND/OR OBSTRUCTIONS TO VISIBILITY.






USA.gov is the U.S. government's official web portal to all federal, state and local government web resources and services.